Location: Biharia
(46.4333°N, 22.8000°E)
Time: 11:24:50
(UTC+00:00)

Timation 2 Rocket - Pass Details

Date: 16 October 2021
Orbit: 904 x 1077 km, 70.0° (Epoch: 03 December)

Event Time Altitude Azimuth Distance (km) Brightness Sun altitude
Rises 16:01:30 0° 332° (NNW) 3,883 7.4 -4.4°
Reaches altitude 10° 16:04:11 10° 335° (NNW) 2,925 6.7 -4.9°
Maximum altitude 16:11:05 70° 59° (ENE) 1,133 4.2 -6.1°
Drops below altitude 10° 16:17:49 10° 143° (SE) 2,853 6.1 -7.2°
Sets 16:20:23 0° 146° (SE) 3,782 6.8 -7.7°
